This demonstration page uses our WeatherBlox Daily Observations layout. Learn more.

Left ArrowRight Arrow

38.89511, -77.03637

Hourly Observations for July 6, 2015

Temp ( °F °C ) Dew Point ( °F °C ) Humidity (%) Winds ( mph kmh ) Pressure ( in mb ) Visibility ( mi km ) Precip ( " mm )
12:52 am 00:52 Mostly Cloudy 77 25 72 22.2 85 85 S 3 6 30.12 1020 10 16 N/A
1:52 am 01:52 Cloudy with Light Rain 77 25 72 22.2 85 85 SSE 3 6 30.12 1020 10 16 0.01 0.25
2:52 am 02:52 Cloudy 77 25 72 22.2 85 85 N N/A 30.11 1020 10 16 N/A
3:38 am 03:38 Cloudy 77 25 72 22 83 83 SE 6 9 30.12 1020 10 16 N/A
3:52 am 03:52 Cloudy 77 25 72 22.2 85 85 ESE 3 6 30.10 1019 10 16 N/A
4:52 am 04:52 Cloudy with Light Rain 77 25 72 22.2 85 85 ESE 5 7 30.10 1019 10 16 N/A
5:52 am 05:52 Cloudy 77 25 72 22.2 85 85 N N/A 30.11 1020 10 16 N/A
6:52 am 06:52 Cloudy 77 25 73 22.8 88 88 ESE 9 15 30.11 1020 9 14 N/A
7:08 am 07:08 Cloudy 77 25 72 22 83 83 SE 7 11 30.12 1020 10 16 N/A
7:52 am 07:52 Cloudy 78 25.6 73 22.8 85 85 SE 5 7 30.12 1020 10 16 N/A
8:09 am 08:09 Cloudy 79 26 73 23 84 84 SE 6 9 30.12 1020 10 16 N/A
8:36 am 08:36 Cloudy 79 26 73 23 84 84 SSE 6 9 30.12 1020 10 16 N/A
8:52 am 08:52 Cloudy 79 26.1 73 22.8 82 82 SSE 7 11 30.12 1020 10 16 N/A
9:08 am 09:08 Cloudy 79 26 73 23 84 84 S 6 9 30.12 1020 10 16 N/A
9:52 am 09:52 Cloudy 80 26.7 72 22.2 76 76 S 6 9 30.12 1020 10 16 N/A
10:30 am 10:30 Mostly Cloudy 81 27 73 23 79 79 S 7 11 30.12 1020 10 16 N/A
10:52 am 10:52 Mostly Cloudy 82 27.8 72 22.2 72 72 S 10 17 30.12 1020 10 16 N/A
11:52 am 11:52 Mostly Cloudy 84 28.9 73 22.8 70 70 S 12 19 30.11 1020 10 16 N/A
12:52 pm 12:52 Mostly Cloudy 86 30 74 23.3 67 67 S 10 17 30.10 1019 10 16 N/A
1:52 pm 13:52 Mostly Cloudy 86 30 73 22.8 65 65 S 10 17 30.09 1019 10 16 N/A
2:52 pm 14:52 Mostly Cloudy 88 31.1 73 22.8 61 61 S 9 15 30.06 1018 10 16 N/A
3:52 pm 15:52 Mostly Cloudy 88 31.1 72 22.2 59 59 S 9 15 30.04 1017 10 16 N/A
4:52 pm 16:52 Mostly Cloudy 88 31.1 71 21.7 57 57 SSW 12 19 30.03 1017 10 16 N/A
5:52 pm 17:52 Mostly Cloudy with Light Rain 83 28.3 71 21.7 67 67 SSE 10 17 30.02 1017 9 14 N/A
6:00 pm 18:00 Mostly Cloudy 84 29 72 22 66 66 SSE 8 13 30.03 1017 10 16 N/A
6:52 pm 18:52 Mostly Cloudy 84 28.9 72 22.2 67 67 SSE 6 9 30.02 1017 10 16 N/A
7:22 pm 19:22 Mostly Cloudy with Light Rain 82 28 72 22 70 70 S 8 13 30.03 1017 10 16 N/A
7:34 pm 19:34 Mostly Cloudy with Light Rain 82 28 73 23 74 74 S 8 13 30.03 1017 10 16 N/A
7:52 pm 19:52 Mostly Cloudy 81 27.2 74 23.3 79 79 SSE 7 11 30.02 1017 10 16 0.01 0.25
8:52 pm 20:52 Mostly Cloudy 79 26.1 72 22.2 79 79 S 5 7 30.03 1017 10 16 N/A
9:52 pm 21:52 Mostly Cloudy 79 26.1 72 22.2 79 79 SE 5 7 30.02 1017 10 16 N/A
10:52 pm 22:52 Mostly Cloudy 78 25.6 73 22.8 85 85 S 9 15 30.02 1017 10 16 N/A
11:52 pm 23:52 Mostly Cloudy 78 25.6 71 21.7 79 79 S 9 15 30.04 1017 10 16 N/A

Powered by AerisWeather